{"data":{"norad_id":51149,"epoch":"2026-09-20T04:29:33.700704Z","epoch_age_seconds":75170,"freshness":"FRESH","line1":"1 51149U 22005AX  26263.18719561  .00000089  00000+0  13782-4 0  9997","line2":"2 51149  53.1591 138.8234 0001317  89.8903 270.2250 15.34387045258197","mean_motion":15.34387045,"eccentricity":0.0001317,"inclination_deg":53.1591,"raan_deg":138.8234,"arg_perigee_deg":89.8903,"mean_anomaly_deg":270.225,"bstar":1.3782e-5,"rev_number":25819,"period_min":93.848550448365,"perigee_km":461.84080173739,"apogee_km":463.64268919894,"semimajor_km":6840.8787454682,"source":"CELESTRAK","updated_at":"2026-09-20T09:00:39.593116Z"}}